Location: Cold Norton
(51.6667°N, 0.6667°E)
Time: 16:54:44
(UTC+00:00)

Cosmos 1943 Rocket - Pass Details

Date: 18 November 2025
Orbit: 812 x 841 km, 71.0° (Epoch: 13 December)

Event Time Altitude Azimuth Distance (km) Brightness Sun altitude
Rises 19:06:40 0° 241° (WSW) 3,374 6.2 -28.1°
Reaches altitude 10° 19:09:20 10° 251° (WSW) 2,439 5.4 -28.5°
Maximum altitude 19:14:22 33° 315° (NW) 1,354 3.6 -29.3°
Enters shadow 19:16:53 23° 360° (N) 1,690 3.8 -29.6°
